[[{"header":{"parameterUnit":"m.s-1","parameterCategory":1,"la1":30.2991,"la2":30.254,"lo1":-89.0895,"lo2":-89.0444,"dx":0.0017,"dy":0.0017,"nx":28,"ny":28,"refTime":"2022-12-07T03:00:00:Z","depth":0,"parameterNumber":2,"parameterNumberName":"U-component_of_WINDS"},"data":[0,0,0,0,0,0,0,0,0,0,0,0,0,0,0,0,0,0,0,0,0,0,0,0,0,0,0,0,0,0,0,0,0,0,0,0,0,0,0,0,0,0,0,0,0,0,0,0,0,0,0,0,0,0,0,0,0,0,0.0214,0.0214,0,0.0248,0.0249,0.0249,0.0256,0.0255,0.0255,0.0255,0.029,0.0291,0.0293,0,0,0,0,0,0,0,0,0,0,0,0,0,0.0153,0.0154,0.0214,0.0214,0.0215,0.0248,0.0249,0.0249,0.0256,0.0255,0.0255,0.0255,0.029,0.0291,0.0293,0,0,0,0,0,0,0,0,0,0,0,0,0,0.0183,0.0155,0.0214,0.0222,0.0223,0.0248,0.0249,0.0249,0.0256,0.0255,0.0255,0.0255,0.0289,0.0291,0.0293,0.0312,0,0,0.0298,0.0299,0,0,0,0,0,0,0,0,0.0181,0.0185,0.022,0.0222,0.0223,0.0247,0.024,0.027,0.0256,0.0243,0.0255,0.0254,0.0276,0.0279,0.0286,0.0314,0.0315,0.0298,0.03,0.03,0.0301,0,0,0,0,0,0,0,0.0179,0.0184,0.0227,0.0221,0.0222,0.0224,0.0228,0.0246,0.0262,0.0245,0.0245,0.0249,0.0277,0.0285,0.0287,0.0316,0.0298,0.03,0.0301,0.0302,0.036,0.036,0,0,0,0,0,0,0.0176,0.0182,0.0226,0.0228,0.0201,0.0225,0.0229,0.024,0.0262,0.0264,0.0249,0.0249,0.0282,0.0285,0.0289,0.0312,0.03,0.0302,0.0303,0.0359,0.036,0.036,0,0,0,0,0,0,0.0174,0.0179,0.0225,0.0205,0.0211,0.0227,0.0238,0.0241,0.0249,0.0265,0.0268,0.0255,0.0282,0.0286,0.0306,0.0314,0.0303,0.0304,0.0359,0.0359,0.036,0.036,0,0,0,0,0,0,0.0172,0.0179,0.0187,0.0205,0.0212,0.0242,0.0239,0.0242,0.0252,0.0252,0.0271,0.0274,0.0282,0.0303,0.0308,0.0316,0.0306,0.0358,0.0359,0.036,0.0359,0.036,0.0361,0,0,0,0,0,0.017,0.0185,0.0187,0.0192,0.0222,0.0242,0.0246,0.0255,0.0252,0.026,0.027,0.0273,0.0312,0.0305,0.031,0.0319,0.0358,0.0359,0.036,0.0359,0.036,0.0361,0,0,0,0,0,0,0.0167,0.0188,0.019,0.0212,0.0225,0.0244,0.0254,0.0257,0.0271,0.0271,0.0281,0.0286,0.0305,0.0314,0.0306,0.0338,0.0335,0.0337,0.0332,0.0334,0.0335,0.0332,0.0307,0,0,0,0,0,0.0169,0.0184,0.0201,0.0218,0.0225,0.0238,0.0247,0.0253,0.0267,0.0273,0.0285,0.0299,0.0314,0.0324,0.0339,0.036,0.0364,0.0369,0.037,0.0371,0.0372,0.0384,0.0386,0.0364,0.0364,0.0364,0,0,0.0173,0.0186,0.0195,0.0218,0.0229,0.0244,0.0243,0.0259,0.027,0.0276,0.0295,0.0304,0.0321,0.0341,0.035,0.0349,0.0379,0.0372,0.0372,0.0374,0.0385,0.0387,0.0389,0.0364,0.0364,0.0364,0,0,0.0188,0.0199,0.0215,0.0226,0.0243,0.0251,0.0255,0.0273,0.0279,0.0299,0.0303,0.0316,0.0342,0.0354,0.0363,0.0381,0.0384,0.0385,0.0391,0.0402,0.0404,0.0406,0.0412,0.0414,0.0387,0.0387,0.0387,0,0.019,0.0213,0.0222,0.0238,0.0248,0.0253,0.0269,0.0279,0.03,0.0307,0.0305,0.0338,0.0349,0.0372,0.0376,0.0383,0.0388,0.0384,0.0403,0.0405,0.0406,0.0413,0.0415,0.0387,0.0387,0.0387,0.0387,0,0.0216,0.0232,0.0242,0.0262,0.0273,0.0289,0.03,0.031,0.0314,0.0323,0.0343,0.0356,0.0374,0.0379,0.0384,0.0403,0.0401,0.0401,0.0397,0.0409,0.0415,0.0417,0.0387,0.0387,0.0387,0.0387,0,0,0.0231,0.0255,0.0259,0.0268,0.0286,0.0298,0.0314,0.0331,0.034,0.0353,0.0367,0.0388,0.0388,0.0398,0.0404,0.0413,0.0427,0.0412,0.0412,0.0414,0.0448,0.0449,0.0451,0.0428,0.0429,0.0429,0.0447,0,0.0248,0.0276,0.0284,0.0308,0.0323,0.0328,0.0341,0.0354,0.0362,0.0375,0.0384,0.0399,0.0397,0.0404,0.0413,0.0423,0.0434,0.0422,0.0441,0.0441,0.0437,0.0455,0.0455,0.0471,0.0449,0.045,0.045,0,0.0272,0.0287,0.0312,0.0328,0.0335,0.0347,0.0363,0.0375,0.039,0.0395,0.0406,0.041,0.0426,0.0421,0.0444,0.0435,0.0443,0.0449,0.045,0.0453,0.0447,0.0458,0.0477,0.0479,0.0454,0.0454,0.0453,0,0.0281,0.0306,0.0324,0.0332,0.0351,0.036,0.0368,0.0382,0.0392,0.0405,0.0412,0.0427,0.0436,0.0448,0.0456,0.0452,0.0477,0.0473,0.0482,0.0482,0.0488,0.0488,0.0509,0.0492,0.0492,0.0492,0.0492,0,0.0299,0.0315,0.0328,0.034,0.0357,0.0366,0.0382,0.0391,0.0403,0.0416,0.0421,0.0432,0.0443,0.0456,0.0463,0.048,0.0484,0.0488,0.049,0.0488,0.0488,0.0494,0.0493,0.0493,0.0493,0.0493,0.0493,0,0.0312,0.0322,0.0342,0.0359,0.0363,0.0375,0.0389,0.04,0.0408,0.0424,0.0428,0.0441,0.0456,0.0466,0.0486,0.049,0.0509,0.051,0.0505,0.0505,0.0514,0.0513,0.054,0.0544,0.0525,0.0525,0.0525,0,0.0324,0.0335,0.0353,0.0362,0.0371,0.0385,0.0395,0.0404,0.0414,0.043,0.0439,0.0455,0.0468,0.0493,0.0504,0.0519,0.052,0.0529,0.0523,0.052,0.0521,0.052,0.0521,0.053,0.053,0.053,0.053,0,0.0343,0.0347,0.0361,0.0377,0.0388,0.0401,0.0414,0.0421,0.0431,0.0442,0.0458,0.0468,0.0488,0.0504,0.052,0.0528,0.0531,0.0532,0.0535,0.0534,0.053,0.0532,0.0508,0.0532,0.0532,0.0531,0.0531,0.0531,0.0356,0.0366,0.038,0.0396,0.0406,0.0418,0.0429,0.0438,0.0451,0.0469,0.0473,0.0489,0.0503,0.0524,0.0533,0.0546,0.0545,0.0549,0.055,0.0551,0.0551,0.0527,0.0549,0.0549,0.0549,0.0549,0.0549,0,0.0376,0.0385,0.0399,0.0416,0.0428,0.0429,0.0443,0.0453,0.0468,0.048,0.0493,0.0511,0.0526,0.0537,0.0553,0.0561,0.0563,0.0565,0.0565,0.0566,0.0551,0.0548,0.0563,0.0563,0.0563,0.0563,0.0563,0.0563,0.0387,0.0406,0.0411,0.0434,0.0443,0.046,0.0468,0.0478,0.0488,0.0508,0.0521,0.0528,0.054,0.0556,0.0569,0.0572,0.0578,0.058,0.0583,0.0569,0.0567,0.0566,0.0562,0.0581,0.0581,0.0597,0.0597,0.0597]},{"header":{"parameterUnit":"m.s-1","parameterCategory":1,"la1":30.2991,"la2":30.254,"lo1":-89.0895,"lo2":-89.0444,"dx":0.0017,"dy":0.0017,"nx":28,"ny":28,"refTime":"2022-12-07T03:00:00:Z","depth":0,"parameterNumber":3,"parameterNumberName":"V-component_of_WINDS"},"data":[0,0,0,0,0,0,0,0,0,0,0,0,0,0,0,0,0,0,0,0,0,0,0,0,0,0,0,0,0,0,0,0,0,0,0,0,0,0,0,0,0,0,0,0,0,0,0,0,0,0,0,0,0,0,0,0,0,0,2.3564,2.3564,0,2.3569,2.357,2.357,2.3547,2.3546,2.3546,2.3545,2.3549,2.355,2.3551,0,0,0,0,0,0,0,0,0,0,0,0,0,2.3533,2.3534,2.3564,2.3564,2.3564,2.3569,2.357,2.357,2.3547,2.3546,2.3545,2.3545,2.3549,2.355,2.3551,0,0,0,0,0,0,0,0,0,0,0,0,0,2.3543,2.3534,2.3564,2.3554,2.3553,2.3569,2.357,2.357,2.3547,2.3546,2.3545,2.3544,2.3549,2.355,2.3551,2.3578,0,0,2.3554,2.3555,0,0,0,0,0,0,0,0,2.3543,2.3544,2.3555,2.3554,2.3553,2.3557,2.356,2.3572,2.3547,2.3549,2.3545,2.3544,2.3552,2.3553,2.3556,2.3578,2.3578,2.3554,2.3555,2.3555,2.3556,0,0,0,0,0,0,0,2.3542,2.3544,2.3566,2.3555,2.3554,2.3548,2.3549,2.3562,2.3556,2.3549,2.3547,2.3548,2.3552,2.3555,2.3556,2.3578,2.3554,2.3555,2.3556,2.3556,2.3623,2.3624,0,0,0,0,0,0,2.3543,2.3544,2.3566,2.3566,2.3546,2.355,2.355,2.3556,2.3556,2.3555,2.3549,2.3547,2.3554,2.3555,2.3556,2.3588,2.3555,2.3556,2.3557,2.3622,2.3623,2.3624,0,0,0,0,0,0,2.3542,2.3545,2.3566,2.3555,2.3557,2.3551,2.3559,2.3557,2.3561,2.3556,2.3555,2.3554,2.3553,2.3555,2.3573,2.3588,2.3557,2.3558,2.362,2.3622,2.3623,2.3652,0,0,0,0,0,0,2.3542,2.3545,2.3555,2.3555,2.3557,2.3583,2.356,2.3558,2.3563,2.356,2.356,2.356,2.3552,2.3571,2.3574,2.3589,2.3559,2.3619,2.3621,2.3623,2.365,2.3655,2.3659,0,0,0,0,0,2.3541,2.3563,2.3556,2.3559,2.357,2.3583,2.3585,2.3577,2.3564,2.3574,2.3572,2.356,2.3586,2.3573,2.3576,2.3592,2.3618,2.362,2.3623,2.3648,2.3654,2.3659,0,0,0,0,0,0,2.3564,2.3562,2.3555,2.3578,2.3581,2.358,2.3592,2.3583,2.3589,2.3587,2.3576,2.3576,2.3596,2.3596,2.3582,2.3618,2.36,2.3603,2.3618,2.3624,2.3628,2.3628,2.356,0,0,0,0,0,2.3572,2.3584,2.3581,2.3602,2.3604,2.3598,2.3603,2.3597,2.3599,2.3601,2.3599,2.3602,2.3611,2.3617,2.3625,2.365,2.365,2.3662,2.3666,2.367,2.3673,2.3687,2.3693,2.3632,2.3632,2.3632,0,0,2.3589,2.3589,2.3597,2.3606,2.3608,2.362,2.3599,2.3612,2.3621,2.3602,2.362,2.3619,2.3621,2.3643,2.3652,2.3643,2.369,2.3673,2.3676,2.3677,2.369,2.3696,2.3701,2.3634,2.3634,2.3633,0,0,2.3625,2.3626,2.3644,2.3647,2.365,2.3646,2.365,2.365,2.3649,2.3666,2.3653,2.3663,2.3678,2.3681,2.3684,2.3723,2.3712,2.3725,2.3749,2.3763,2.3767,2.3772,2.3786,2.3791,2.3728,2.3728,2.3728,0,2.3645,2.3663,2.3654,2.3669,2.3674,2.3658,2.3676,2.3678,2.3684,2.3687,2.3677,2.3697,2.3697,2.372,2.3729,2.3732,2.3737,2.3726,2.3767,2.3772,2.3775,2.3789,2.3795,2.373,2.373,2.373,2.3729,0,2.3688,2.3701,2.3714,2.3721,2.3727,2.3743,2.3737,2.3744,2.3737,2.3734,2.3753,2.3752,2.3761,2.3765,2.3758,2.3787,2.3782,2.3769,2.3751,2.3783,2.3796,2.3801,2.3732,2.3732,2.3731,2.3731,0,0,2.374,2.3742,2.3747,2.3751,2.3753,2.3763,2.3778,2.3787,2.3794,2.3798,2.3811,2.3824,2.3814,2.3817,2.381,2.3822,2.3854,2.3809,2.3809,2.3818,2.3887,2.3897,2.3903,2.3846,2.3847,2.3848,2.3887,0,2.3776,2.3804,2.3797,2.3824,2.3836,2.3821,2.3834,2.3838,2.3835,2.3845,2.3842,2.3852,2.3837,2.3839,2.385,2.3848,2.3868,2.3845,2.3859,2.3859,2.386,2.391,2.392,2.3957,2.3892,2.3893,2.3893,0,2.3823,2.383,2.3859,2.3861,2.3865,2.3878,2.3885,2.3895,2.3898,2.3895,2.39,2.3891,2.3906,2.3887,2.3908,2.3892,2.3897,2.3897,2.3898,2.39,2.3879,2.3914,2.3968,2.3974,2.3901,2.39,2.39,0,2.3859,2.3876,2.3896,2.3899,2.3901,2.391,2.3911,2.3913,2.3919,2.3926,2.393,2.3937,2.3942,2.3948,2.3941,2.3928,2.3964,2.3944,2.3963,2.3963,2.3972,2.3971,2.4029,2.3973,2.3973,2.3973,2.3973,0,2.3902,2.392,2.3912,2.3924,2.3945,2.3936,2.3956,2.3955,2.3958,2.3969,2.3956,2.3968,2.3957,2.3968,2.3962,2.3981,2.3983,2.3982,2.398,2.3983,2.3984,2.3987,2.3985,2.3975,2.3974,2.3974,2.3974,0,2.3946,2.3941,2.3962,2.3963,2.3963,2.3978,2.3979,2.399,2.3987,2.4002,2.4005,2.4,2.4011,2.4005,2.4016,2.4013,2.4038,2.4032,2.4037,2.4036,2.4056,2.4054,2.4118,2.4127,2.4065,2.4065,2.4066,0,2.3974,2.3988,2.399,2.3998,2.4,2.4012,2.4018,2.401,2.4017,2.4022,2.4033,2.4043,2.4051,2.407,2.4068,2.4077,2.4072,2.4094,2.4073,2.4076,2.4073,2.4073,2.4075,2.4098,2.4099,2.4099,2.41,0,2.4024,2.4022,2.4032,2.4041,2.4049,2.4056,2.4062,2.4068,2.406,2.4069,2.4081,2.4087,2.4099,2.411,2.4118,2.4118,2.4108,2.4106,2.4111,2.4115,2.4118,2.4118,2.405,2.4105,2.4105,2.4104,2.4104,2.4104,2.4062,2.4075,2.4079,2.409,2.4094,2.41,2.4111,2.4109,2.4119,2.4129,2.4123,2.4138,2.4141,2.415,2.4153,2.4163,2.4155,2.4162,2.4164,2.4166,2.4169,2.4116,2.4165,2.4164,2.4164,2.4164,2.4164,0,2.4113,2.4115,2.4126,2.4135,2.4144,2.4134,2.414,2.4148,2.4161,2.4165,2.4174,2.4188,2.4198,2.4197,2.4206,2.4215,2.4211,2.4218,2.4218,2.4219,2.4176,2.4171,2.4222,2.4222,2.4222,2.4222,2.4222,2.4222,2.4141,2.4161,2.4159,2.4182,2.4183,2.4198,2.4202,2.4208,2.4211,2.4228,2.4237,2.4236,2.4237,2.4247,2.4256,2.4255,2.426,2.4269,2.4267,2.4227,2.4222,2.4216,2.4212,2.427,2.427,2.4309,2.4309,2.431]}]]